time, CHL, BGA, pH, TURB
  UTC , RFU, RFU, , NTU
 31-May-2023 18:00:00, 0.22, -0.26, 8.56, 3.65
31-May-2023 18:10:00, 0.23, -0.25, 8.56, 3.65
31-May-2023 18:20:00, 0.22, -0.24, 8.55, 3.64
31-May-2023 18:30:00, 0.23, -0.24, 8.56, 3.72
31-May-2023 18:40:00, 0.22, -0.25, 8.56, 3.70
31-May-2023 18:50:00, 0.21, -0.24, 8.56, 3.68
31-May-2023 19:00:00, 0.19, -0.26, 8.56, 3.59
31-May-2023 19:10:00, 0.17, -0.27, 8.55, 3.51
31-May-2023 19:20:00, 0.14, -0.27, 8.54, 3.27
31-May-2023 19:30:00, 0.12, -0.27, 8.54, 3.04
31-May-2023 19:40:00, 0.12, -0.28, 8.53, 2.99
31-May-2023 19:50:00, 0.13, -0.28, 8.53, 2.74
31-May-2023 20:00:00, 0.13, -0.28, 8.53, 2.65
31-May-2023 20:10:00, 0.13, -0.28, 8.53, 2.65
31-May-2023 20:20:00, 0.16, -0.27, 8.53, 2.69
31-May-2023 20:30:00, 0.15, -0.27, 8.52, 2.66
31-May-2023 20:40:00, 0.15, -0.28, 8.52, 2.66
31-May-2023 20:50:00, 0.16, -0.27, 8.52, 2.62
31-May-2023 21:00:00, 0.17, -0.27, 8.52, 2.64
31-May-2023 21:10:00, 0.17, -0.28, 8.53, 2.60
31-May-2023 21:20:00, 0.15, -0.28, 8.53, 2.48
31-May-2023 21:30:00, 0.17, -0.28, 8.54, 2.52
31-May-2023 21:40:00, 0.17, -0.27, 8.54, 2.63
31-May-2023 21:50:00, 0.18, -0.27, 8.55, 2.71
31-May-2023 22:00:00, 0.19, -0.27, 8.55, 2.66
31-May-2023 22:10:00, 0.19, -0.26, 8.56, 2.70
31-May-2023 22:20:00, 0.20, -0.26, 8.56, 2.73
31-May-2023 22:30:00, 0.21, -0.26, 8.57, 2.75
31-May-2023 22:40:00, 0.22, -0.27, 8.57, 2.75
31-May-2023 22:50:00, 0.22, -0.26, 8.57, 2.75
31-May-2023 23:00:00, 0.25, -0.25, 8.57, 2.77
31-May-2023 23:10:00, 0.29, -0.25, 8.57, 2.82
31-May-2023 23:20:00, 0.36, -0.24, 8.57, 2.88
31-May-2023 23:30:00, 0.43, -0.23, 8.57, 2.90
31-May-2023 23:40:00, 0.38, -0.23, 8.57, 2.90
31-May-2023 23:50:00, 0.47, -0.23, 8.55, 2.90
01-Jun-2023 00:00:00, 0.49, -0.22, 8.55, 2.91
01-Jun-2023 00:10:00, 0.48, -0.21, 8.54, 2.98
01-Jun-2023 00:20:00, 0.51, -0.21, 8.54, 3.04
01-Jun-2023 00:30:00, 0.52, -0.21, 8.54, 3.05
01-Jun-2023 00:40:00, 0.52, -0.21, 8.55, 3.08
01-Jun-2023 00:50:00, 0.56, -0.20, 8.55, 3.06
01-Jun-2023 01:00:00, 0.58, -0.21, 8.55, 3.07
01-Jun-2023 01:10:00, 0.60, -0.20, 8.54, 3.09
01-Jun-2023 01:20:00, 0.61, -0.20, 8.54, 3.09
01-Jun-2023 01:30:00, 0.62, -0.21, 8.54, 3.13
01-Jun-2023 01:40:00, 0.63, -0.20, 8.55, 3.17
01-Jun-2023 01:50:00, 0.65, -0.20, 8.55, 3.18
01-Jun-2023 02:00:00, 0.65, -0.20, 8.54, 3.20
01-Jun-2023 02:10:00, 0.66, -0.20, 8.54, 3.21
01-Jun-2023 02:20:00, 0.68, -0.18, 8.54, 3.23
01-Jun-2023 02:30:00, 0.68, -0.19, 8.54, 3.24
01-Jun-2023 02:40:00, 0.69, -0.19, 8.54, 3.25
01-Jun-2023 02:50:00, 0.71, -0.19, 8.54, 3.28
01-Jun-2023 03:00:00, 0.70, -0.18, 8.54, 3.29
01-Jun-2023 03:10:00, 0.70, -0.19, 8.54, 3.29
01-Jun-2023 03:20:00, 0.69, -0.19, 8.54, 3.28
01-Jun-2023 03:30:00, 0.69, -0.19, 8.53, 3.25
01-Jun-2023 03:40:00, 0.70, -0.19, 8.53, 3.27
01-Jun-2023 03:50:00, 0.69, -0.18, 8.53, 3.25
01-Jun-2023 04:00:00, 0.69, -0.19, 8.53, 3.26
01-Jun-2023 04:10:00, 0.69, -0.19, 8.53, 3.27
01-Jun-2023 04:20:00, 0.69, -0.19, 8.53, 3.26
01-Jun-2023 04:30:00, 0.69, -0.19, 8.53, 3.29
01-Jun-2023 04:40:00, 0.68, -0.19, 8.53, 3.25
01-Jun-2023 04:50:00, 0.68, -0.19, 8.53, 3.24
01-Jun-2023 05:00:00, 0.67, -0.19, 8.52, 3.28
01-Jun-2023 05:10:00, 0.68, -0.19, 8.52, 3.26
01-Jun-2023 05:20:00, 0.69, -0.19, 8.52, 3.25
01-Jun-2023 05:30:00, 0.68, -0.19, 8.52, 3.26
01-Jun-2023 05:40:00, 0.69, -0.19, 8.52, 3.30
01-Jun-2023 05:50:00, 0.68, -0.19, 8.52, 3.25
01-Jun-2023 06:00:00, 0.69, -0.18, 8.53, 3.27
01-Jun-2023 06:10:00, 0.69, -0.19, 8.53, 3.28
01-Jun-2023 06:20:00, 0.69, -0.18, 8.53, 3.33
01-Jun-2023 06:30:00, 0.69, -0.19, 8.53, 3.28
01-Jun-2023 06:40:00, 0.69, -0.19, 8.54, 3.27
01-Jun-2023 06:50:00, 0.69, -0.19, 8.53, 3.27
01-Jun-2023 07:00:00, 0.68, -0.19, 8.52, 3.26
01-Jun-2023 07:10:00, 0.69, -0.19, 8.52, 3.28
01-Jun-2023 07:20:00, 0.70, -0.18, 8.53, 3.31
01-Jun-2023 07:30:00, 0.69, -0.19, 8.53, 3.29
01-Jun-2023 07:40:00, 0.69, -0.19, 8.53, 3.29
01-Jun-2023 07:50:00, 0.70, -0.19, 8.53, 3.31
01-Jun-2023 08:00:00, 0.69, -0.19, 8.53, 3.30
01-Jun-2023 08:10:00, 0.70, -0.18, 8.53, 3.30
01-Jun-2023 08:20:00, 0.71, -0.19, 8.53, 3.29
01-Jun-2023 08:30:00, 0.71, -0.18, 8.53, 3.30
01-Jun-2023 08:40:00, 0.72, -0.19, 8.53, 3.28
01-Jun-2023 08:50:00, 0.70, -0.19, 8.53, 3.27
01-Jun-2023 09:00:00, 0.71, -0.18, 8.53, 3.26
01-Jun-2023 09:10:00, 0.72, -0.18, 8.53, 3.26
01-Jun-2023 09:20:00, 0.73, -0.18, 8.54, 3.28
01-Jun-2023 09:30:00, 0.73, -0.17, 8.54, 3.28
01-Jun-2023 09:40:00, 0.73, -0.18, 8.54, 3.28
01-Jun-2023 09:50:00, 0.75, -0.18, 8.54, 3.29
01-Jun-2023 10:00:00, 0.73, -0.18, 8.54, 3.30
01-Jun-2023 10:10:00, 0.74, -0.17, 8.54, 3.30
01-Jun-2023 10:20:00, 0.74, -0.18, 8.54, 3.30
01-Jun-2023 10:30:00, 0.72, -0.18, 8.54, 3.31
01-Jun-2023 10:40:00, 0.75, -0.18, 8.54, 3.30
01-Jun-2023 10:50:00, 0.73, -0.19, 8.54, 3.29
01-Jun-2023 11:00:00, 0.73, -0.18, 8.54, 3.28
01-Jun-2023 11:10:00, 0.70, -0.18, 8.54, 3.29
01-Jun-2023 11:20:00, 0.74, -0.18, 8.54, 3.27
01-Jun-2023 11:30:00, 0.69, -0.18, 8.54, 3.27
01-Jun-2023 11:40:00, 0.69, -0.18, 8.55, 3.28
01-Jun-2023 11:50:00, 0.68, -0.19, 8.55, 3.25
01-Jun-2023 12:00:00, 0.65, -0.19, 8.55, 3.30
01-Jun-2023 12:10:00, 0.63, -0.20, 8.55, 3.25
01-Jun-2023 12:20:00, 0.59, -0.20, 8.55, 3.25
01-Jun-2023 12:30:00, 0.59, -0.20, 8.55, 3.22
01-Jun-2023 12:40:00, 0.56, -0.20, 8.55, 3.23
01-Jun-2023 12:50:00, 0.54, -0.20, 8.55, 3.20
01-Jun-2023 13:00:00, 0.53, -0.20, 8.55, 3.21
01-Jun-2023 13:10:00, 0.53, -0.20, 8.54, 3.21
01-Jun-2023 13:20:00, 0.53, -0.20, 8.53, 3.19
01-Jun-2023 13:30:00, 0.46, -0.21, 8.53, 3.19
01-Jun-2023 13:40:00, 0.44, -0.21, 8.53, 3.18
01-Jun-2023 13:50:00, 0.43, -0.23, 8.53, 3.14
01-Jun-2023 14:00:00, 0.39, -0.22, 8.54, 3.10
01-Jun-2023 14:10:00, 0.33, -0.23, 8.54, 3.11
01-Jun-2023 14:20:00, 0.30, -0.24, 8.54, 3.08
01-Jun-2023 14:30:00, 0.23, -0.26, 8.54, 3.05
01-Jun-2023 14:40:00, 0.21, -0.26, 8.54, 3.02
01-Jun-2023 14:50:00, 0.21, -0.26, 8.53, 3.00
01-Jun-2023 15:00:00, 0.19, -0.26, 8.54, 3.01
01-Jun-2023 15:10:00, 0.22, -0.26, 8.54, 2.99
01-Jun-2023 15:20:00, 0.28, -0.24, 8.55, 2.97
01-Jun-2023 15:30:00, 0.24, -0.25, 8.55, 2.95
01-Jun-2023 15:40:00, 0.28, -0.24, 8.55, 2.96
01-Jun-2023 15:50:00, 0.27, -0.24, 8.55, 2.94
01-Jun-2023 16:00:00, 0.29, -0.25, 8.55, 2.93
01-Jun-2023 16:10:00, 0.32, -0.24, 8.56, 2.93
01-Jun-2023 16:20:00, 0.33, -0.23, 8.56, 2.95
01-Jun-2023 16:30:00, 0.33, -0.23, 8.57, 2.94
01-Jun-2023 16:40:00, 0.33, -0.23, 8.57, 2.93
01-Jun-2023 16:50:00, 0.27, -0.25, 8.57, 2.94
01-Jun-2023 17:00:00, 0.27, -0.24, 8.56, 2.96
01-Jun-2023 17:10:00, 0.22, -0.25, 8.57, 2.97
01-Jun-2023 17:20:00, 0.21, -0.26, 8.56, 2.98
01-Jun-2023 17:30:00, 0.20, -0.26, 8.54, 2.97
01-Jun-2023 17:40:00, 0.20, -0.26, 8.54, 2.99
01-Jun-2023 17:50:00, 0.20, -0.27, 8.54, 2.97
01-Jun-2023 18:00:00, 0.20, -0.26, 8.54, 2.98
01-Jun-2023 18:10:00, 0.20, -0.26, 8.54, 2.97
01-Jun-2023 18:20:00, 0.19, -0.26, 8.55, 2.98
01-Jun-2023 18:30:00, 0.18, -0.26, 8.55, 2.95
01-Jun-2023 18:40:00, 0.19, -0.25, 8.55, 2.98
01-Jun-2023 18:50:00, 0.19, -0.27, 8.55, 2.97
01-Jun-2023 19:00:00, 0.19, -0.26, 8.55, 2.97
01-Jun-2023 19:10:00, 0.20, -0.26, 8.55, 2.96
01-Jun-2023 19:20:00, 0.19, -0.27, 8.55, 2.99
01-Jun-2023 19:30:00, 0.20, -0.27, 8.55, 2.99
01-Jun-2023 19:40:00, 0.20, -0.27, 8.55, 3.02
01-Jun-2023 19:50:00, 0.20, -0.26, 8.54, 3.03
01-Jun-2023 20:00:00, 0.20, -0.26, 8.54, 3.03
01-Jun-2023 20:10:00, 0.20, -0.26, 8.54, 3.04
01-Jun-2023 20:20:00, 0.22, -0.26, 8.54, 3.03
01-Jun-2023 20:30:00, 0.25, -0.25, 8.54, 3.03
01-Jun-2023 20:40:00, 0.26, -0.25, 8.55, 3.04
01-Jun-2023 20:50:00, 0.24, -0.25, 8.55, 3.02
01-Jun-2023 21:00:00, 0.28, -0.25, 8.55, 3.03
01-Jun-2023 21:10:00, 0.42, -0.23, 8.56, 3.03
01-Jun-2023 21:20:00, 0.40, -0.23, 8.55, 3.03
01-Jun-2023 21:30:00, 0.34, -0.24, 8.55, 3.02
01-Jun-2023 21:40:00, 0.37, -0.23, 8.55, 3.02
01-Jun-2023 21:50:00, 0.35, -0.23, 8.55, 3.00
01-Jun-2023 22:00:00, 0.39, -0.23, 8.55, 3.01
01-Jun-2023 22:10:00, 0.36, -0.24, 8.54, 2.99
01-Jun-2023 22:20:00, 0.44, -0.22, 8.54, 2.98
01-Jun-2023 22:30:00, 0.35, -0.24, 8.53, 2.96
01-Jun-2023 22:40:00, 0.46, -0.22, 8.52, 2.94
01-Jun-2023 22:50:00, 0.47, -0.22, 8.52, 2.94
01-Jun-2023 23:00:00, 0.42, -0.23, 8.53, 2.93
01-Jun-2023 23:10:00, 0.42, -0.23, 8.52, 2.91
01-Jun-2023 23:20:00, 0.38, -0.24, 8.53, 2.91
01-Jun-2023 23:30:00, 0.44, -0.23, 8.53, 2.88
01-Jun-2023 23:40:00, 0.50, -0.21, 8.53, 2.86
01-Jun-2023 23:50:00, 0.51, -0.22, 8.53, 2.83
02-Jun-2023 00:00:00, 0.46, -0.21, 8.53, 2.81
02-Jun-2023 00:10:00, 0.45, -0.22, 8.52, 2.84
02-Jun-2023 00:20:00, 0.47, -0.22, 8.53, 2.73
02-Jun-2023 00:30:00, 0.48, -0.22, 8.53, 2.68
02-Jun-2023 00:40:00, 0.51, -0.21, 8.53, 2.63
02-Jun-2023 00:50:00, 0.52, -0.21, 8.53, 2.62
02-Jun-2023 01:00:00, 0.54, -0.22, 8.53, 2.61
02-Jun-2023 01:10:00, 0.57, -0.21, 8.53, 2.53
02-Jun-2023 01:20:00, 0.58, -0.22, 8.53, 2.49
02-Jun-2023 01:30:00, 0.60, -0.22, 8.52, 2.49
02-Jun-2023 01:40:00, 0.59, -0.22, 8.53, 2.46
02-Jun-2023 01:50:00, 0.60, -0.20, 8.53, 2.47
02-Jun-2023 02:00:00, 0.61, -0.22, 8.53, 2.52
02-Jun-2023 02:10:00, 0.62, -0.21, 8.53, 2.55
02-Jun-2023 02:20:00, 0.62, -0.21, 8.53, 2.55
02-Jun-2023 02:30:00, 0.62, -0.21, 8.53, 2.56
02-Jun-2023 02:40:00, 0.65, -0.21, 8.53, 2.57
02-Jun-2023 02:50:00, 0.65, -0.21, 8.53, 2.58
02-Jun-2023 03:00:00, 0.64, -0.20, 8.53, 2.60
02-Jun-2023 03:10:00, 0.65, -0.20, 8.53, 2.62
02-Jun-2023 03:20:00, 0.64, -0.21, 8.53, 2.59
02-Jun-2023 03:30:00, 0.65, -0.20, 8.53, 2.61
02-Jun-2023 03:40:00, 0.64, -0.21, 8.53, 2.60
02-Jun-2023 03:50:00, 0.64, -0.20, 8.53, 2.64
02-Jun-2023 04:00:00, 0.64, -0.21, 8.53, 2.65
02-Jun-2023 04:10:00, 0.64, -0.20, 8.53, 2.63
02-Jun-2023 04:20:00, 0.64, -0.20, 8.53, 2.64
02-Jun-2023 04:30:00, 0.64, -0.20, 8.53, 2.63
02-Jun-2023 04:40:00, 0.64, -0.20, 8.53, 2.63
02-Jun-2023 04:50:00, 0.64, -0.21, 8.53, 2.60
02-Jun-2023 05:00:00, 0.65, -0.21, 8.52, 2.63
02-Jun-2023 05:10:00, 0.64, -0.21, 8.52, 2.61
02-Jun-2023 05:20:00, 0.65, -0.21, 8.52, 2.58
02-Jun-2023 05:30:00, 0.65, -0.20, 8.52, 2.59
02-Jun-2023 05:40:00, 0.65, -0.20, 8.52, 2.56
02-Jun-2023 05:50:00, 0.64, -0.20, 8.52, 2.57
02-Jun-2023 06:00:00, 0.65, -0.20, 8.52, 2.54
02-Jun-2023 06:10:00, 0.65, -0.21, 8.51, 2.53
02-Jun-2023 06:20:00, 0.65, -0.21, 8.52, 2.53
02-Jun-2023 06:30:00, 0.65, -0.20, 8.52, 2.56
02-Jun-2023 06:40:00, 0.65, -0.22, 8.51, 2.54
02-Jun-2023 06:50:00, 0.65, -0.20, 8.51, 2.50
02-Jun-2023 07:00:00, 0.65, -0.21, 8.51, 2.48
02-Jun-2023 07:10:00, 0.64, -0.22, 8.51, 2.47
02-Jun-2023 07:20:00, 0.64, -0.21, 8.51, 2.51
02-Jun-2023 07:30:00, 0.65, -0.21, 8.51, 2.50
02-Jun-2023 07:40:00, 0.64, -0.21, 8.51, 2.52
02-Jun-2023 07:50:00, 0.65, -0.21, 8.51, 2.55
02-Jun-2023 08:00:00, 0.64, -0.20, 8.51, 2.58
02-Jun-2023 08:10:00, 0.64, -0.21, 8.51, 2.60
02-Jun-2023 08:20:00, 0.65, -0.21, 8.51, 2.61
02-Jun-2023 08:30:00, 0.64, -0.21, 8.51, 2.64
02-Jun-2023 08:40:00, 0.64, -0.20, 8.51, 2.65
02-Jun-2023 08:50:00, 0.65, -0.21, 8.51, 2.69
02-Jun-2023 09:00:00, 0.66, -0.21, 8.50, 2.70
02-Jun-2023 09:10:00, 0.63, -0.21, 8.50, 2.74
02-Jun-2023 09:20:00, 0.64, -0.21, 8.50, 2.76
02-Jun-2023 09:30:00, 0.63, -0.21, 8.50, 2.77
02-Jun-2023 09:40:00, 0.63, -0.20, 8.50, 2.83
02-Jun-2023 09:50:00, 0.63, -0.21, 8.50, 2.82
02-Jun-2023 10:00:00, 0.63, -0.21, 8.49, 2.86
02-Jun-2023 10:10:00, 0.62, -0.21, 8.49, 2.86
02-Jun-2023 10:20:00, 0.64, -0.21, 8.49, 2.88
02-Jun-2023 10:30:00, 0.64, -0.22, 8.49, 2.93
02-Jun-2023 10:40:00, 0.63, -0.21, 8.49, 2.92
02-Jun-2023 10:50:00, 0.64, -0.22, 8.49, 2.96
02-Jun-2023 11:00:00, 0.64, -0.21, 8.49, 2.96
02-Jun-2023 11:10:00, 0.62, -0.21, 8.48, 2.97
02-Jun-2023 11:20:00, 0.62, -0.22, 8.48, 2.96
02-Jun-2023 11:30:00, 0.63, -0.22, 8.48, 2.95
02-Jun-2023 11:40:00, 0.62, -0.20, 8.48, 2.92
02-Jun-2023 11:50:00, 0.62, -0.20, 8.48, 2.93
02-Jun-2023 12:00:00, 0.57, -0.22, 8.48, 2.95
02-Jun-2023 12:10:00, 0.56, -0.21, 8.49, 2.97
02-Jun-2023 12:20:00, 0.57, -0.21, 8.49, 2.96
02-Jun-2023 12:30:00, 0.59, -0.21, 8.49, 2.93
02-Jun-2023 12:40:00, 0.59, -0.22, 8.49, 2.95
02-Jun-2023 12:50:00, 0.59, -0.21, 8.49, 2.96
02-Jun-2023 13:00:00, 0.58, -0.22, 8.49, 2.97
02-Jun-2023 13:10:00, 0.59, -0.22, 8.49, 2.95
02-Jun-2023 13:20:00, 0.59, -0.22, 8.49, 2.95
02-Jun-2023 13:30:00, 0.55, -0.22, 8.49, 2.94
02-Jun-2023 13:40:00, 0.55, -0.21, 8.49, 2.93
02-Jun-2023 13:50:00, 0.53, -0.22, 8.49, 2.93
02-Jun-2023 14:00:00, 0.47, -0.23, 8.49, 2.92
02-Jun-2023 14:10:00, 0.47, -0.23, 8.49, 2.94
02-Jun-2023 14:20:00, 0.40, -0.23, 8.49, 2.94
02-Jun-2023 14:30:00, 0.42, -0.23, 8.49, 2.93
02-Jun-2023 14:40:00, 0.45, -0.22, 8.49, 2.89
02-Jun-2023 14:50:00, 0.44, -0.21, 8.49, 2.90
02-Jun-2023 15:00:00, 0.48, -0.23, 8.49, 2.94
02-Jun-2023 15:10:00, 0.48, -0.22, 8.50, 2.91
02-Jun-2023 15:20:00, 0.47, -0.22, 8.50, 2.91
02-Jun-2023 15:30:00, 0.47, -0.22, 8.50, 2.91
02-Jun-2023 15:40:00, 0.48, -0.21, 8.50, 2.93
02-Jun-2023 15:50:00, 0.48, -0.22, 8.51, 2.90
02-Jun-2023 16:00:00, 0.39, -0.23, 8.51, 2.91
02-Jun-2023 16:10:00, 0.30, -0.24, 8.51, 2.93
02-Jun-2023 16:20:00, 0.27, -0.25, 8.52, 2.93
02-Jun-2023 16:30:00, 0.25, -0.26, 8.52, 2.94
02-Jun-2023 16:40:00, 0.24, -0.26, 8.53, 2.92
02-Jun-2023 16:50:00, 0.24, -0.27, 8.53, 2.93
02-Jun-2023 17:00:00, 0.23, -0.25, 8.53, 2.90
02-Jun-2023 17:10:00, 0.23, -0.26, 8.53, 2.92
02-Jun-2023 17:20:00, 0.20, -0.26, 8.53, 2.87
02-Jun-2023 17:30:00, 0.20, -0.26, 8.54, 2.89
02-Jun-2023 17:40:00, 0.21, -0.26, 8.54, 2.87
02-Jun-2023 17:50:00, 0.22, -0.27, 8.54, 2.85
02-Jun-2023 18:00:00, 0.20, -0.27, 8.55, 2.85
02-Jun-2023 18:10:00, 0.19, -0.27, 8.55, 2.82
02-Jun-2023 18:20:00, 0.18, -0.28, 8.55, 2.74
02-Jun-2023 18:30:00, 0.19, -0.27, 8.55, 2.74
02-Jun-2023 18:40:00, 0.20, -0.27, 8.55, 2.67
02-Jun-2023 18:50:00, 0.22, -0.26, 8.55, 2.71
02-Jun-2023 19:00:00, 0.22, -0.26, 8.55, 2.68
02-Jun-2023 19:10:00, 0.23, -0.27, 8.55, 2.68
02-Jun-2023 19:20:00, 0.20, -0.27, 8.55, 2.62
02-Jun-2023 19:30:00, 0.20, -0.27, 8.55, 2.59
02-Jun-2023 19:40:00, 0.20, -0.27, 8.55, 2.56
02-Jun-2023 19:50:00, 0.21, -0.27, 8.55, 2.58
02-Jun-2023 20:00:00, 0.21, -0.26, 8.56, 2.56
02-Jun-2023 20:10:00, 0.20, -0.27, 8.56, 2.56
02-Jun-2023 20:20:00, 0.21, -0.28, 8.56, 2.54
02-Jun-2023 20:30:00, 0.20, -0.27, 8.56, 2.50
02-Jun-2023 20:40:00, 0.20, -0.28, 8.56, 2.51
02-Jun-2023 20:50:00, 0.23, -0.27, 8.56, 2.47
02-Jun-2023 21:00:00, 0.23, -0.26, 8.56, 2.50
02-Jun-2023 21:10:00, 0.24, -0.26, 8.56, 2.50
02-Jun-2023 21:20:00, 0.28, -0.26, 8.56, 2.50
02-Jun-2023 21:30:00, 0.26, -0.26, 8.56, 2.50
02-Jun-2023 21:40:00, 0.28, -0.26, 8.56, 2.51
02-Jun-2023 21:50:00, 0.29, -0.25, 8.56, 2.44
02-Jun-2023 22:00:00, 0.26, -0.26, 8.56, 2.48
02-Jun-2023 22:10:00, 0.27, -0.26, 8.56, 2.48
02-Jun-2023 22:20:00, 0.28, -0.26, 8.55, 2.50
02-Jun-2023 22:30:00, 0.28, -0.26, 8.56, 2.49
02-Jun-2023 22:40:00, 0.33, -0.24, 8.55, 2.51
02-Jun-2023 22:50:00, 0.36, -0.24, 8.55, 2.52
02-Jun-2023 23:00:00, 0.43, -0.24, 8.55, 2.50
02-Jun-2023 23:10:00, 0.45, -0.23, 8.55, 2.50
02-Jun-2023 23:20:00, 0.46, -0.23, 8.55, 2.49
02-Jun-2023 23:30:00, 0.48, -0.22, 8.55, 2.50
02-Jun-2023 23:40:00, 0.49, -0.21, 8.55, 2.49
02-Jun-2023 23:50:00, 0.51, -0.22, 8.55, 2.46
03-Jun-2023 00:00:00, 0.53, -0.22, 8.55, 2.52
03-Jun-2023 00:10:00, 0.57, -0.22, 8.55, 2.58
03-Jun-2023 00:20:00, 0.59, -0.22, 8.55, 2.58
03-Jun-2023 00:30:00, 0.58, -0.21, 8.55, 2.53
03-Jun-2023 00:40:00, 0.61, -0.21, 8.55, 2.54
03-Jun-2023 00:50:00, 0.60, -0.22, 8.55, 2.54
03-Jun-2023 01:00:00, 0.61, -0.21, 8.55, 2.53
03-Jun-2023 01:10:00, 0.61, -0.22, 8.55, 2.54
03-Jun-2023 01:20:00, 0.62, -0.22, 8.55, 2.49
03-Jun-2023 01:30:00, 0.63, -0.21, 8.55, 2.58
03-Jun-2023 01:40:00, 0.63, -0.22, 8.55, 2.51
03-Jun-2023 01:50:00, 0.65, -0.20, 8.55, 2.52
03-Jun-2023 02:00:00, 0.64, -0.21, 8.54, 2.59
03-Jun-2023 02:10:00, 0.64, -0.22, 8.54, 2.62
03-Jun-2023 02:20:00, 0.64, -0.21, 8.54, 2.69
03-Jun-2023 02:30:00, 0.65, -0.21, 8.53, 2.70
03-Jun-2023 02:40:00, 0.66, -0.21, 8.53, 2.71
03-Jun-2023 02:50:00, 0.66, -0.21, 8.53, 2.71
03-Jun-2023 03:00:00, 0.66, -0.21, 8.52, 2.74
03-Jun-2023 03:10:00, 0.66, -0.21, 8.52, 2.75
03-Jun-2023 03:20:00, 0.65, -0.21, 8.52, 2.77
03-Jun-2023 03:30:00, 0.65, -0.21, 8.52, 2.79
03-Jun-2023 03:40:00, 0.65, -0.21, 8.52, 2.79
03-Jun-2023 03:50:00, 0.65, -0.21, 8.52, 2.80
03-Jun-2023 04:00:00, 0.65, -0.22, 8.52, 2.76
03-Jun-2023 04:10:00, 0.65, -0.21, 8.51, 2.76
03-Jun-2023 04:20:00, 0.64, -0.21, 8.51, 2.76
03-Jun-2023 04:30:00, 0.63, -0.22, 8.51, 2.74
03-Jun-2023 04:40:00, 0.64, -0.22, 8.51, 2.77
03-Jun-2023 04:50:00, 0.66, -0.22, 8.51, 2.78
03-Jun-2023 05:00:00, 0.65, -0.22, 8.52, 2.78
03-Jun-2023 05:10:00, 0.64, -0.22, 8.52, 2.76
03-Jun-2023 05:20:00, 0.64, -0.22, 8.52, 2.77
03-Jun-2023 05:30:00, 0.65, -0.22, 8.51, 2.77
03-Jun-2023 05:40:00, 0.64, -0.23, 8.51, 2.76
03-Jun-2023 05:50:00, 0.65, -0.22, 8.51, 2.75
03-Jun-2023 06:00:00, 0.66, -0.22, 8.51, 2.75
03-Jun-2023 06:10:00, 0.65, -0.22, 8.52, 2.73
03-Jun-2023 06:20:00, 0.65, -0.22, 8.52, 2.73
03-Jun-2023 06:30:00, 0.65, -0.21, 8.52, 2.71
03-Jun-2023 06:40:00, 0.65, -0.22, 8.51, 2.73
03-Jun-2023 06:50:00, 0.66, -0.21, 8.51, 2.67
03-Jun-2023 07:00:00, 0.66, -0.22, 8.51, 2.69
03-Jun-2023 07:10:00, 0.63, -0.22, 8.51, 2.68
03-Jun-2023 07:20:00, 0.64, -0.22, 8.50, 2.65
03-Jun-2023 07:30:00, 0.64, -0.22, 8.50, 2.62
03-Jun-2023 07:40:00, 0.64, -0.22, 8.50, 2.65
03-Jun-2023 07:50:00, 0.65, -0.22, 8.50, 2.66
03-Jun-2023 08:00:00, 0.65, -0.22, 8.50, 2.66
03-Jun-2023 08:10:00, 0.65, -0.21, 8.51, 2.64
03-Jun-2023 08:20:00, 0.65, -0.21, 8.51, 2.63
03-Jun-2023 08:30:00, 0.66, -0.21, 8.51, 2.69
03-Jun-2023 08:40:00, 0.66, -0.22, 8.51, 2.63
03-Jun-2023 08:50:00, 0.67, -0.22, 8.51, 2.66
03-Jun-2023 09:00:00, 0.67, -0.21, 8.51, 2.65
03-Jun-2023 09:10:00, 0.68, -0.21, 8.51, 2.62
03-Jun-2023 09:20:00, 0.67, -0.21, 8.51, 2.64
03-Jun-2023 09:30:00, 0.69, -0.21, 8.52, 2.68
03-Jun-2023 09:40:00, 0.69, -0.20, 8.52, 2.65
03-Jun-2023 09:50:00, 0.69, -0.20, 8.53, 2.67
03-Jun-2023 10:00:00, 0.70, -0.20, 8.53, 2.72
03-Jun-2023 10:10:00, 0.72, -0.21, 8.54, 2.73
03-Jun-2023 10:20:00, 0.70, -0.20, 8.54, 2.72
03-Jun-2023 10:30:00, 0.73, -0.21, 8.54, 2.76
03-Jun-2023 10:40:00, 0.74, -0.20, 8.54, 2.76
03-Jun-2023 10:50:00, 0.71, -0.20, 8.54, 2.77
03-Jun-2023 11:00:00, 0.71, -0.20, 8.53, 2.80
03-Jun-2023 11:10:00, 0.71, -0.20, 8.54, 2.80
03-Jun-2023 11:20:00, 0.70, -0.20, 8.54, 2.78
03-Jun-2023 11:30:00, 0.70, -0.20, 8.54, 2.75
03-Jun-2023 11:40:00, 0.69, -0.19, 8.54, 2.76
03-Jun-2023 11:50:00, 0.65, -0.20, 8.54, 2.76
03-Jun-2023 12:00:00, 0.64, -0.20, 8.54, 2.74
03-Jun-2023 12:10:00, 0.58, -0.21, 8.54, 2.73
03-Jun-2023 12:20:00, 0.50, -0.21, 8.55, 2.75
03-Jun-2023 12:30:00, 0.46, -0.23, 8.55, 2.74
03-Jun-2023 12:40:00, 0.39, -0.24, 8.55, 2.75
03-Jun-2023 12:50:00, 0.34, -0.25, 8.55, 2.74
03-Jun-2023 13:00:00, 0.29, -0.25, 8.54, 2.80
03-Jun-2023 13:10:00, 0.31, -0.26, 8.54, 2.71
03-Jun-2023 13:20:00, 0.27, -0.25, 8.54, 2.69
03-Jun-2023 13:30:00, 0.24, -0.26, 8.55, 2.70
03-Jun-2023 13:40:00, 0.23, -0.26, 8.55, 2.61
03-Jun-2023 13:50:00, 0.21, -0.26, 8.55, 2.62
03-Jun-2023 14:00:00, 0.21, -0.26, 8.55, 2.60
03-Jun-2023 14:10:00, 0.19, -0.27, 8.55, 2.59
03-Jun-2023 14:20:00, 0.20, -0.27, 8.55, 2.60
03-Jun-2023 14:30:00, 0.17, -0.28, 8.56, 2.56
03-Jun-2023 14:40:00, 0.17, -0.27, 8.56, 2.57
03-Jun-2023 14:50:00, 0.21, -0.26, 8.56, 2.52
03-Jun-2023 15:00:00, 0.27, -0.26, 8.57, 2.53
03-Jun-2023 15:10:00, 0.23, -0.26, 8.58, 2.47
03-Jun-2023 15:20:00, 0.17, -0.28, 8.58, 2.46
03-Jun-2023 15:30:00, 0.17, -0.28, 8.58, 2.43
03-Jun-2023 15:40:00, 0.19, -0.27, 8.59, 2.44
03-Jun-2023 15:50:00, 0.16, -0.28, 8.59, 2.43
03-Jun-2023 16:00:00, 0.18, -0.27, 8.59, 2.43
03-Jun-2023 16:10:00, 0.16, -0.28, 8.59, 2.40
03-Jun-2023 16:20:00, 0.18, -0.27, 8.60, 2.36
03-Jun-2023 16:30:00, 0.24, -0.25, 8.59, 2.35
03-Jun-2023 16:40:00, 0.17, -0.27, 8.59, 2.35
03-Jun-2023 16:50:00, 0.16, -0.28, 8.59, 2.37
03-Jun-2023 17:00:00, 0.15, -0.29, 8.59, 2.45
03-Jun-2023 17:10:00, 0.17, -0.27, 8.59, 2.31
03-Jun-2023 17:20:00, 0.17, -0.28, 8.59, 2.39
03-Jun-2023 17:30:00, 0.17, -0.28, 8.59, 2.30
03-Jun-2023 17:40:00, 0.14, -0.29, 8.60, 2.29
03-Jun-2023 17:50:00, 0.13, -0.29, 8.61, 2.25
03-Jun-2023 18:00:00, 0.13, -0.28, 8.62, 2.24
03-Jun-2023 18:10:00, 0.14, -0.29, 8.62, 2.25
03-Jun-2023 18:20:00, 0.16, -0.28, 8.62, 2.26
03-Jun-2023 18:30:00, 0.17, -0.28, 8.62, 2.31
03-Jun-2023 18:40:00, 0.18, -0.28, 8.61, 2.38
03-Jun-2023 18:50:00, 0.18, -0.27, 8.61, 2.34
03-Jun-2023 19:00:00, 0.16, -0.29, 8.60, 2.34
03-Jun-2023 19:10:00, 0.16, -0.28, 8.60, 2.32
03-Jun-2023 19:20:00, 0.17, -0.28, 8.60, 2.32
03-Jun-2023 19:30:00, 0.18, -0.28, 8.60, 2.31
03-Jun-2023 19:40:00, 0.18, -0.28, 8.60, 2.29
03-Jun-2023 19:50:00, 0.18, -0.27, 8.60, 2.27
03-Jun-2023 20:00:00, 0.20, -0.27, 8.60, 2.29
03-Jun-2023 20:10:00, 0.22, -0.27, 8.60, 2.33
03-Jun-2023 20:20:00, 0.23, -0.27, 8.59, 2.35
03-Jun-2023 20:30:00, 0.24, -0.27, 8.59, 2.36
03-Jun-2023 20:40:00, 0.23, -0.26, 8.59, 2.37
03-Jun-2023 20:50:00, 0.29, -0.27, 8.59, 2.37
03-Jun-2023 21:00:00, 0.26, -0.26, 8.59, 2.43
03-Jun-2023 21:10:00, 0.26, -0.26, 8.59, 2.34
03-Jun-2023 21:20:00, 0.31, -0.25, 8.59, 2.37
03-Jun-2023 21:30:00, 0.27, -0.27, 8.59, 2.35
03-Jun-2023 21:40:00, 0.28, -0.26, 8.59, 2.36
03-Jun-2023 21:50:00, 0.29, -0.25, 8.59, 2.37
03-Jun-2023 22:00:00, 0.34, -0.25, 8.60, 2.38
03-Jun-2023 22:10:00, 0.33, -0.25, 8.60, 2.38
03-Jun-2023 22:20:00, 0.36, -0.24, 8.59, 2.39
03-Jun-2023 22:30:00, 0.36, -0.25, 8.59, 2.37
03-Jun-2023 22:40:00, 0.37, -0.24, 8.60, 2.37
03-Jun-2023 22:50:00, 0.40, -0.24, 8.60, 2.37
03-Jun-2023 23:00:00, 0.42, -0.24, 8.60, 2.38
03-Jun-2023 23:10:00, 0.46, -0.23, 8.60, 2.37
03-Jun-2023 23:20:00, 0.48, -0.23, 8.60, 2.35
03-Jun-2023 23:30:00, 0.48, -0.23, 8.60, 2.37
03-Jun-2023 23:40:00, 0.51, -0.23, 8.60, 2.37
03-Jun-2023 23:50:00, 0.51, -0.23, 8.60, 2.39
04-Jun-2023 00:00:00, 0.55, -0.23, 8.60, 2.40
04-Jun-2023 00:10:00, 0.57, -0.22, 8.60, 2.40
04-Jun-2023 00:20:00, 0.59, -0.22, 8.60, 2.40
04-Jun-2023 00:30:00, 0.59, -0.23, 8.60, 2.42
04-Jun-2023 00:40:00, 0.61, -0.22, 8.60, 2.42
04-Jun-2023 00:50:00, 0.62, -0.21, 8.59, 2.39
04-Jun-2023 01:00:00, 0.65, -0.21, 8.58, 2.41
04-Jun-2023 01:10:00, 0.65, -0.22, 8.58, 2.40
04-Jun-2023 01:20:00, 0.67, -0.21, 8.57, 2.42
04-Jun-2023 01:30:00, 0.69, -0.21, 8.57, 2.44
04-Jun-2023 01:40:00, 0.68, -0.20, 8.57, 2.40
04-Jun-2023 01:50:00, 0.68, -0.21, 8.57, 2.37
04-Jun-2023 02:00:00, 0.69, -0.21, 8.57, 2.40
04-Jun-2023 02:10:00, 0.69, -0.21, 8.57, 2.43
04-Jun-2023 02:20:00, 0.68, -0.21, 8.57, 2.40
04-Jun-2023 02:30:00, 0.68, -0.20, 8.57, 2.39
04-Jun-2023 02:40:00, 0.69, -0.20, 8.57, 2.42
04-Jun-2023 02:50:00, 0.70, -0.21, 8.57, 2.38
04-Jun-2023 03:00:00, 0.70, -0.20, 8.57, 2.37
04-Jun-2023 03:10:00, 0.69, -0.20, 8.57, 2.39
04-Jun-2023 03:20:00, 0.71, -0.20, 8.56, 2.39
04-Jun-2023 03:30:00, 0.69, -0.20, 8.57, 2.40
04-Jun-2023 03:40:00, 0.69, -0.21, 8.56, 2.40
04-Jun-2023 03:50:00, 0.70, -0.21, 8.56, 2.40
04-Jun-2023 04:00:00, 0.71, -0.21, 8.57, 2.40
04-Jun-2023 04:10:00, 0.70, -0.20, 8.57, 2.40
04-Jun-2023 04:20:00, 0.70, -0.21, 8.58, 2.41
04-Jun-2023 04:30:00, 0.69, -0.20, 8.58, 2.40
04-Jun-2023 04:40:00, 0.71, -0.20, 8.58, 2.39
04-Jun-2023 04:50:00, 0.70, -0.21, 8.59, 2.40
04-Jun-2023 05:00:00, 0.71, -0.20, 8.59, 2.40
04-Jun-2023 05:10:00, 0.71, -0.21, 8.58, 2.38
04-Jun-2023 05:20:00, 0.70, -0.21, 8.57, 2.42
04-Jun-2023 05:30:00, 0.70, -0.21, 8.56, 2.40
04-Jun-2023 05:40:00, 0.70, -0.20, 8.56, 2.38
04-Jun-2023 05:50:00, 0.70, -0.20, 8.57, 2.35
04-Jun-2023 06:00:00, 0.71, -0.20, 8.57, 2.36
04-Jun-2023 06:10:00, 0.71, -0.20, 8.57, 2.38
04-Jun-2023 06:20:00, 0.70, -0.20, 8.57, 2.34
04-Jun-2023 06:30:00, 0.71, -0.20, 8.57, 2.31
04-Jun-2023 06:40:00, 0.72, -0.20, 8.58, 2.29